Location: Newark
(46.7636°N, 1.8358°W)
Time: 01:18:59
(UTC+00:00)

Vanguard 2 Rocket - Pass Details

Date: 14 October 2019
Orbit: 554 x 3326 km, 32.9° (Epoch: 13 November)

Event Time Altitude Azimuth Distance (km) Brightness Sun altitude
Rises 14:03:56 0° 262° (W) 7,277 12.1 27.9°
Reaches altitude 10° 14:09:23 10° 257° (WSW) 6,113 12.0 27.3°
Maximum altitude 14:26:02 45° 194° (SSW) 3,093 10.8 25.4°
Drops below altitude 10° 14:36:48 10° 126° (SE) 4,032 10.2 24.2°
Sets 14:39:36 0° 120° (ESE) 4,700 10.4 23.8°
